User: anonymous   Login
Location: Fort Wayne
(41.1310°N, 85.1290°W)
Time: 18:10:08
(UTC-04:00)
Language:

OPAL - Orbit

View from above orbital plane
View from above orbital plane
View from above satellite
View from above satellite

Ground track
Ground track

The orbit data is extracted from the following two-line orbital elements,

1 26063U 00004C   15148.64257979  .00000043  00000-0  34746-4 0  9994
2 26063 100.2202 003.7060 0035804 264.8509 094.8585 14.36539327803616
Epoch (UTC): 28 May 2015 15:25:18
Eccentricity: 0.0035804
inclination: 100.2202°
perigee height: 744 km
apogee height: 795 km
right ascension of ascending node: 3.7060°
argument of perigee: 264.8509°
revolutions per day: 14.36539327
mean anomaly at epoch: 94.8585°
orbit number at epoch: 80361

The dashed part of the orbit path shows where the satellite is in the earth's shadow,  

DLR